Guymon, OK

7:48 PM CDT on May 23, 2018 (GMT -0500)
Guymon Municipal

Weather History for KGUY - September, 2012

Change the Weather History Date:

Wednesday, September 12, 2012

  Actual Average Record
Temperature  
Mean Temperature 69 °F 72 °F  
Max Temperature 83 °F 87 °F 99 °F (2004)
Min Temperature 54 °F 58 °F 43 °F (2014)
Degree Days  
Heating Degree Days 0 1  
Month to date heating degree days 0 2  
Since 1 July heating degree days 0 3  
Cooling Degree Days 4 8  
Month to date cooling degree days 139 113  
Year to date cooling degree days 1853 1362  
Growing Degree Days 18 (Base 50)    
Moisture  
Dew Point 44 °F    
Average Humidity 53    
Maximum Humidity 83    
Minimum Humidity 23    
Precipitation  
Precipitation 0.07 in 0.06 in 0.64 in (2014)
Month to date precipitation 0.07 0.77  
Year to date precipitation 9.09 15.54  
Snow  
Snow 0.00 in - - ()
Month to date snowfall 0.0  
Since 1 July snowfall 0.0  
Since 1 September snowfall 0.0  
Snow Depth 0.00 in    
Sea Level Pressure  
Sea Level Pressure 29.92 in    
Wind  
Wind Speed 16 mph (NNW)    
Max Wind Speed 31 mph    
Max Gust Speed 39 mph    
Visibility 10 miles    
Events Rain , Thunderstorm    
T = Trace of Precipitation, MM = Missing Value Source: NWS Daily Summary

Daily Weather History Graph

Daily Weather History Graph

Search for Another Location

Airport or City:

Astronomy

Sep. 12, 2012 Rise Set
Actual Time 7:26 AM CDT 7:57 PM CDT
Civil Twilight 7:00 AM CDT 8:23 PM CDT
Nautical Twilight 6:29 AM CDT 8:53 PM CDT
Astronomical Twilight 5:58 AM CDT 9:24 PM CDT
Moon 3:49 AM CDT (9/12) 5:42 PM CDT (9/12)
Length of Visible Light 13h 22m
Length of Day
12h 30m
Waning Crescent, 13% of the Moon is Illuminated
Sep 12
Waning Crescent
Sep 15
New
Sep 22
First Quarter
Sep 29
Full
Oct 8
Last Quarter

Hourly Weather History & Observations

Time (CDT) Temp. Dew Point Humidity Pressure Visibility Wind Dir Wind Speed Gust Speed Precip Events Conditions
12:53 AM 78.1 °F 44.1 °F 30% 29.74 in 10.0 mi South 20.7 mph 31.1 mph N/A   Clear
1:53 AM 75.9 °F 45.0 °F 33% 29.74 in 10.0 mi South 17.3 mph 29.9 mph N/A   Clear
2:53 AM 73.9 °F 45.0 °F 35% 29.73 in 10.0 mi South 18.4 mph - N/A   Clear
3:53 AM 73.0 °F 45.0 °F 37% 29.71 in 10.0 mi South 18.4 mph 24.2 mph N/A   Clear
4:53 AM 72.0 °F 46.0 °F 40% 29.72 in 10.0 mi South 15.0 mph - N/A   Clear
5:53 AM 71.1 °F 48.0 °F 44% 29.77 in 10.0 mi WSW 8.1 mph - N/A   Clear
6:51 AM 69.8 °F 44.6 °F 40% 29.96 in 10.0 mi NW 8.1 mph - N/A   Mostly Cloudy
6:53 AM 69.1 °F 43.0 °F 39% 29.80 in 10.0 mi NW 8.1 mph - N/A   Mostly Cloudy
7:32 AM 68.0 °F 39.2 °F 35% 29.98 in 10.0 mi NW 9.2 mph - N/A   Scattered Clouds
7:53 AM 66.0 °F 39.0 °F 37% 29.84 in 10.0 mi WNW 8.1 mph - N/A   Clear
8:53 AM 71.1 °F 37.0 °F 29% 29.85 in 10.0 mi NW 16.1 mph - N/A   Clear
9:53 AM 73.0 °F 37.0 °F 27% 29.87 in 10.0 mi North 17.3 mph - N/A   Clear
10:53 AM 75.0 °F 37.0 °F 25% 29.87 in 10.0 mi NNW 15.0 mph - N/A   Clear
11:53 AM 78.1 °F 39.0 °F 25% 29.89 in 10.0 mi NNW 10.4 mph - N/A   Clear
12:53 PM 80.1 °F 39.9 °F 24% 29.88 in 10.0 mi NNW 8.1 mph 17.3 mph N/A   Clear
1:53 PM 78.1 °F 41.0 °F 27% 29.90 in 10.0 mi North 11.5 mph - N/A   Clear
2:53 PM 80.1 °F 42.1 °F 26% 29.89 in 10.0 mi NNE 12.7 mph - N/A   Clear
4:53 PM 82.0 °F 44.1 °F 26% 29.89 in 10.0 mi North 13.8 mph - N/A   Scattered Clouds
5:27 PM 80.6 °F 44.6 °F 28% 30.04 in 10.0 mi North 25.3 mph 32.2 mph N/A Thunderstorm Clear
5:42 PM 78.8 °F 44.6 °F 30% 30.05 in 10.0 mi NNW 25.3 mph 33.4 mph N/A   Clear
5:53 PM 77.0 °F 43.0 °F 30% 29.92 in 10.0 mi North 27.6 mph 34.5 mph N/A   Clear
6:53 PM 71.1 °F 44.1 °F 38% 29.99 in 10.0 mi North 23.0 mph 33.4 mph N/A   Clear
8:53 PM 60.1 °F 46.0 °F 60% 30.10 in 10.0 mi North 21.9 mph 38.0 mph 0.00 in Rain Light Rain
9:53 PM 55.0 °F 50.0 °F 83% 30.15 in 10.0 mi North 18.4 mph 25.3 mph 0.02 in   Overcast
10:53 PM 55.0 °F 50.0 °F 83% 30.17 in 10.0 mi North 12.7 mph - N/A   Overcast
11:46 PM 53.6 °F 51.8 °F 94% 30.28 in 10.0 mi North 16.1 mph 24.2 mph 0.00 in Rain Light Rain
11:53 PM 54.0 °F 51.1 °F 90% 30.19 in 10.0 mi North 16.1 mph 24.2 mph 0.00 in Rain Light Rain